Find Starlink 5327

NORAD ID: 55291 Int'l Des: 2023-010 Owner: SPXS Country: US Constellation: starlink operational
LEOCIRCULAR

Live Position

Loading 3D Globe...

About Starlink 5327

Description loading...

Upcoming Passes

Passes for default location (London). Set your location on the main map for personalized predictions.

Altitude History

Loading altitude history...

Two-Line Element Set

1 55291U 23010Y 26104.92603803 .00000351 00000-0 37191-4 0 9996
2 55291 69.9977 293.2228 0002679 269.7970 90.2882 14.98330332178699
Epoch: Apr 14, 2026 • Age: 12 hours

Current Status

Altitude 585.4 km
Velocity 7.57 km/s
Sub-Earth Point 69.87°N, 21.96°E
Launch Date Jan 19, 2023
Age 3.2 years
Type internet

Technical Details

Classification Payload
Mass 305.00 kg
Dry Mass 290.00 kg
Total Mass 305.00 kg
Length 0.20 m
Diameter 2.80 m
Span 9.00 m
Shape Box + pan
Manufacturer SPXS
Bus Type Starlink
Phase Status In Orbit
Owner/State SPXS/US

Most Searched